Year,Month,Day,Hour,Minute,Value (Times are PST for insolation in W/m^2)
2021,10,02,00,00,0.00
2021,10,02,00,01,0.00
2021,10,02,00,02,0.00
2021,10,02,00,03,0.00
2021,10,02,00,04,0.00
2021,10,02,00,05,0.00
2021,10,02,00,06,0.00
2021,10,02,00,07,0.00
2021,10,02,00,08,0.00
2021,10,02,00,09,0.00
2021,10,02,00,10,0.00
2021,10,02,00,11,0.00
2021,10,02,00,12,0.00
2021,10,02,00,13,0.00
2021,10,02,00,14,0.00
2021,10,02,00,15,0.00
2021,10,02,00,16,0.00
2021,10,02,00,17,0.00
2021,10,02,00,18,0.00
2021,10,02,00,19,0.00
2021,10,02,00,20,0.00
2021,10,02,00,21,0.00
2021,10,02,00,22,0.00
2021,10,02,00,23,0.00
2021,10,02,00,24,0.00
2021,10,02,00,25,0.00
2021,10,02,00,26,0.00
2021,10,02,00,27,0.00
2021,10,02,00,28,0.00
2021,10,02,00,29,0.00
2021,10,02,00,30,0.00
2021,10,02,00,31,0.00
2021,10,02,00,32,0.00
2021,10,02,00,33,0.00
2021,10,02,00,34,0.00
2021,10,02,00,35,0.00
2021,10,02,00,36,0.00
2021,10,02,00,37,0.00
2021,10,02,00,38,0.00
2021,10,02,00,39,0.00
2021,10,02,00,40,0.00
2021,10,02,00,41,0.00
2021,10,02,00,42,0.00
2021,10,02,00,43,0.00
2021,10,02,00,44,0.00
2021,10,02,00,45,0.00
2021,10,02,00,46,0.00
2021,10,02,00,47,0.00
2021,10,02,00,48,0.00
2021,10,02,00,49,0.00
2021,10,02,00,50,0.00
2021,10,02,00,51,0.00
2021,10,02,00,52,0.00
2021,10,02,00,53,0.00
2021,10,02,00,54,0.00
2021,10,02,00,55,0.00
2021,10,02,00,56,0.00
2021,10,02,00,57,0.00
2021,10,02,00,58,0.00
2021,10,02,00,59,0.00
2021,10,02,01,00,0.00
2021,10,02,01,01,0.00
2021,10,02,01,02,0.00
2021,10,02,01,03,0.00
2021,10,02,01,04,0.00
2021,10,02,01,05,0.00
2021,10,02,01,06,0.00
2021,10,02,01,07,0.00
2021,10,02,01,08,0.00
2021,10,02,01,09,0.00
2021,10,02,01,10,0.00
2021,10,02,01,11,0.00
2021,10,02,01,12,0.00
2021,10,02,01,13,0.00
2021,10,02,01,14,0.00
2021,10,02,01,15,0.00
2021,10,02,01,16,0.00
2021,10,02,01,17,0.00
2021,10,02,01,18,0.00
2021,10,02,01,19,0.00
2021,10,02,01,20,0.00
2021,10,02,01,21,0.00
2021,10,02,01,22,0.00
2021,10,02,01,23,0.00
2021,10,02,01,24,0.00
2021,10,02,01,25,0.00
2021,10,02,01,26,0.00
2021,10,02,01,27,0.00
2021,10,02,01,28,0.00
2021,10,02,01,29,0.00
2021,10,02,01,30,0.00
2021,10,02,01,31,0.00
2021,10,02,01,32,0.00
2021,10,02,01,33,0.00
2021,10,02,01,34,0.00
2021,10,02,01,35,0.00
2021,10,02,01,36,0.00
2021,10,02,01,37,0.00
2021,10,02,01,38,0.00
2021,10,02,01,39,0.00
2021,10,02,01,40,0.00
2021,10,02,01,41,0.00
2021,10,02,01,42,0.00
2021,10,02,01,43,0.00
2021,10,02,01,44,0.00
2021,10,02,01,45,0.00
2021,10,02,01,46,0.00
2021,10,02,01,47,0.00
2021,10,02,01,48,0.00
2021,10,02,01,49,0.00
2021,10,02,01,50,0.00
2021,10,02,01,51,0.00
2021,10,02,01,52,0.00
2021,10,02,01,53,0.00
2021,10,02,01,54,0.00
2021,10,02,01,55,0.00
2021,10,02,01,56,0.00
2021,10,02,01,57,0.00
2021,10,02,01,58,0.00
2021,10,02,01,59,0.00
2021,10,02,02,00,0.00
2021,10,02,02,01,0.00
2021,10,02,02,02,0.00
2021,10,02,02,03,0.00
2021,10,02,02,04,0.00
2021,10,02,02,05,0.00
2021,10,02,02,06,0.00
2021,10,02,02,07,0.00
2021,10,02,02,08,0.00
2021,10,02,02,09,0.00
2021,10,02,02,10,0.00
2021,10,02,02,11,0.00
2021,10,02,02,12,0.00
2021,10,02,02,13,0.00
2021,10,02,02,14,0.00
2021,10,02,02,15,0.00
2021,10,02,02,16,0.00
2021,10,02,02,17,0.00
2021,10,02,02,18,0.00
2021,10,02,02,19,0.00
2021,10,02,02,20,0.00
2021,10,02,02,21,0.00
2021,10,02,02,22,0.00
2021,10,02,02,23,0.00
2021,10,02,02,24,0.00
2021,10,02,02,25,0.00
2021,10,02,02,26,0.00
2021,10,02,02,27,0.00
2021,10,02,02,28,0.00
2021,10,02,02,29,0.00
2021,10,02,02,30,0.00
2021,10,02,02,31,0.00
2021,10,02,02,32,0.00
2021,10,02,02,33,0.00
2021,10,02,02,34,0.00
2021,10,02,02,35,0.00
2021,10,02,02,36,0.00
2021,10,02,02,37,0.00
2021,10,02,02,38,0.00
2021,10,02,02,39,0.00
2021,10,02,02,40,0.00
2021,10,02,02,41,0.00
2021,10,02,02,42,0.00
2021,10,02,02,43,0.00
2021,10,02,02,44,0.00
2021,10,02,02,45,0.00
2021,10,02,02,46,0.00
2021,10,02,02,47,0.00
2021,10,02,02,48,0.00
2021,10,02,02,49,0.00
2021,10,02,02,50,0.00
2021,10,02,02,51,0.00
2021,10,02,02,52,0.00
2021,10,02,02,53,0.00
2021,10,02,02,54,0.00
2021,10,02,02,55,0.00
2021,10,02,02,56,0.00
2021,10,02,02,57,0.00
2021,10,02,02,58,0.00
2021,10,02,02,59,0.00
2021,10,02,03,00,0.00
2021,10,02,03,01,0.00
2021,10,02,03,02,0.00
2021,10,02,03,03,0.00
2021,10,02,03,04,0.00
2021,10,02,03,05,0.00
2021,10,02,03,06,0.00
2021,10,02,03,07,0.00
2021,10,02,03,08,0.00
2021,10,02,03,09,0.00
2021,10,02,03,10,0.00
2021,10,02,03,11,0.00
2021,10,02,03,12,0.00
2021,10,02,03,13,0.00
2021,10,02,03,14,0.00
2021,10,02,03,15,0.00
2021,10,02,03,16,0.00
2021,10,02,03,17,0.00
2021,10,02,03,18,0.00
2021,10,02,03,19,0.00
2021,10,02,03,20,0.00
2021,10,02,03,21,0.00
2021,10,02,03,22,0.00
2021,10,02,03,23,0.00
2021,10,02,03,24,0.00
2021,10,02,03,25,0.00
2021,10,02,03,26,0.00
2021,10,02,03,27,0.00
2021,10,02,03,28,0.00
2021,10,02,03,29,0.00
2021,10,02,03,30,0.00
2021,10,02,03,31,0.00
2021,10,02,03,32,0.00
2021,10,02,03,33,0.00
2021,10,02,03,34,0.00
2021,10,02,03,35,0.00
2021,10,02,03,36,0.00
2021,10,02,03,37,0.00
2021,10,02,03,38,0.00
2021,10,02,03,39,0.00
2021,10,02,03,40,0.00
2021,10,02,03,41,0.00
2021,10,02,03,42,0.00
2021,10,02,03,43,0.00
2021,10,02,03,44,0.00
2021,10,02,03,45,0.00
2021,10,02,03,46,0.00
2021,10,02,03,47,0.00
2021,10,02,03,48,0.00
2021,10,02,03,49,0.00
2021,10,02,03,50,0.00
2021,10,02,03,51,0.00
2021,10,02,03,52,0.00
2021,10,02,03,53,0.00
2021,10,02,03,54,0.00
2021,10,02,03,55,0.00
2021,10,02,03,56,0.00
2021,10,02,03,57,0.00
2021,10,02,03,58,0.00
2021,10,02,03,59,0.00
2021,10,02,04,00,0.00
2021,10,02,04,01,0.00
2021,10,02,04,02,0.00
2021,10,02,04,03,0.00
2021,10,02,04,04,0.00
2021,10,02,04,05,0.00
2021,10,02,04,06,0.00
2021,10,02,04,07,0.00
2021,10,02,04,08,0.00
2021,10,02,04,09,0.00
2021,10,02,04,10,0.00
2021,10,02,04,11,0.00
2021,10,02,04,12,0.00
2021,10,02,04,13,0.00
2021,10,02,04,14,0.00
2021,10,02,04,15,0.00
2021,10,02,04,16,0.00
2021,10,02,04,17,0.00
2021,10,02,04,18,0.00
2021,10,02,04,19,0.00
2021,10,02,04,20,0.00
2021,10,02,04,21,0.00
2021,10,02,04,22,0.00
2021,10,02,04,23,0.00
2021,10,02,04,24,0.00
2021,10,02,04,25,0.00
2021,10,02,04,26,0.00
2021,10,02,04,27,0.00
2021,10,02,04,28,0.00
2021,10,02,04,29,0.00
2021,10,02,04,30,0.00
2021,10,02,04,31,0.00
2021,10,02,04,32,0.00
2021,10,02,04,33,0.00
2021,10,02,04,34,0.00
2021,10,02,04,35,0.00
2021,10,02,04,36,0.00
2021,10,02,04,37,0.00
2021,10,02,04,38,0.00
2021,10,02,04,39,0.00
2021,10,02,04,40,0.00
2021,10,02,04,41,0.00
2021,10,02,04,42,0.00
2021,10,02,04,43,0.00
2021,10,02,04,44,0.00
2021,10,02,04,45,0.00
2021,10,02,04,46,0.00
2021,10,02,04,47,0.00
2021,10,02,04,48,0.00
2021,10,02,04,49,0.00
2021,10,02,04,50,0.00
2021,10,02,04,51,0.00
2021,10,02,04,52,0.00
2021,10,02,04,53,0.00
2021,10,02,04,54,0.00
2021,10,02,04,55,0.00
2021,10,02,04,56,0.00
2021,10,02,04,57,0.00
2021,10,02,04,58,0.00
2021,10,02,04,59,0.00
2021,10,02,05,00,0.00
2021,10,02,05,01,0.00
2021,10,02,05,02,0.00
2021,10,02,05,03,0.00
2021,10,02,05,04,0.00
2021,10,02,05,05,0.00
2021,10,02,05,06,0.00
2021,10,02,05,07,0.00
2021,10,02,05,08,0.00
2021,10,02,05,09,0.00
2021,10,02,05,10,0.00
2021,10,02,05,11,0.00
2021,10,02,05,12,0.00
2021,10,02,05,13,0.00
2021,10,02,05,14,0.00
2021,10,02,05,15,0.00
2021,10,02,05,16,0.00
2021,10,02,05,17,0.00
2021,10,02,05,18,0.00
2021,10,02,05,19,0.00
2021,10,02,05,20,0.00
2021,10,02,05,21,0.00
2021,10,02,05,22,0.00
2021,10,02,05,23,0.00
2021,10,02,05,24,0.00
2021,10,02,05,25,0.00
2021,10,02,05,26,0.00
2021,10,02,05,27,0.00
2021,10,02,05,28,0.00
2021,10,02,05,29,0.00
2021,10,02,05,30,0.00
2021,10,02,05,31,0.00
2021,10,02,05,32,0.00
2021,10,02,05,33,0.00
2021,10,02,05,34,0.00
2021,10,02,05,35,0.00
2021,10,02,05,36,0.00
2021,10,02,05,37,0.00
2021,10,02,05,38,0.00
2021,10,02,05,39,0.00
2021,10,02,05,40,0.00
2021,10,02,05,41,0.00
2021,10,02,05,42,0.00
2021,10,02,05,43,0.00
2021,10,02,05,44,0.00
2021,10,02,05,45,0.00
2021,10,02,05,46,0.00
2021,10,02,05,47,0.00
2021,10,02,05,48,0.00
2021,10,02,05,49,0.00
2021,10,02,05,50,0.00
2021,10,02,05,51,0.00
2021,10,02,05,52,0.00
2021,10,02,05,53,0.00
2021,10,02,05,54,0.00
2021,10,02,05,55,0.00
2021,10,02,05,56,0.00
2021,10,02,05,57,0.00
2021,10,02,05,58,0.00
2021,10,02,05,59,0.00
2021,10,02,06,00,0.00
2021,10,02,06,01,0.00
2021,10,02,06,02,0.00
2021,10,02,06,03,0.00
2021,10,02,06,04,0.00
2021,10,02,06,05,0.00
2021,10,02,06,06,0.00
2021,10,02,06,07,0.00
2021,10,02,06,08,0.00
2021,10,02,06,09,0.00
2021,10,02,06,10,0.00
2021,10,02,06,11,0.00
2021,10,02,06,12,0.00
2021,10,02,06,13,0.00
2021,10,02,06,14,0.00
2021,10,02,06,15,0.00
2021,10,02,06,16,0.00
2021,10,02,06,17,0.00
2021,10,02,06,18,0.00
2021,10,02,06,19,0.00
2021,10,02,06,20,0.00
2021,10,02,06,21,0.00
2021,10,02,06,22,0.00
2021,10,02,06,23,0.00
2021,10,02,06,24,0.00
2021,10,02,06,25,0.00
2021,10,02,06,26,0.00
2021,10,02,06,27,0.00
2021,10,02,06,28,0.00
2021,10,02,06,29,0.00
2021,10,02,06,30,0.00
2021,10,02,06,31,0.00
2021,10,02,06,32,0.00
2021,10,02,06,33,0.00
2021,10,02,06,34,0.00
2021,10,02,06,35,0.00
2021,10,02,06,36,0.00
2021,10,02,06,37,0.00
2021,10,02,06,38,0.00
2021,10,02,06,39,0.00
2021,10,02,06,40,0.00
2021,10,02,06,41,0.00
2021,10,02,06,42,0.00
2021,10,02,06,43,0.00
2021,10,02,06,44,0.00
2021,10,02,06,45,0.00
2021,10,02,06,46,0.00
2021,10,02,06,47,0.00
2021,10,02,06,48,0.00
2021,10,02,06,49,0.00
2021,10,02,06,50,0.00
2021,10,02,06,51,0.00
2021,10,02,06,52,0.00
2021,10,02,06,53,0.00
2021,10,02,06,54,0.00
2021,10,02,06,55,0.00
2021,10,02,06,56,0.00
2021,10,02,06,57,0.00
2021,10,02,06,58,0.00
2021,10,02,06,59,0.00
2021,10,02,07,00,0.00
2021,10,02,07,01,0.00
2021,10,02,07,02,0.00
2021,10,02,07,03,0.00
2021,10,02,07,04,0.00
2021,10,02,07,05,0.00
2021,10,02,07,06,0.00
2021,10,02,07,07,0.00
2021,10,02,07,08,0.00
2021,10,02,07,09,0.00
2021,10,02,07,10,0.00
2021,10,02,07,11,0.00
2021,10,02,07,12,0.00
2021,10,02,07,13,0.00
2021,10,02,07,14,0.00
2021,10,02,07,15,0.00
2021,10,02,07,16,0.00
2021,10,02,07,17,0.00
2021,10,02,07,18,0.00
2021,10,02,07,19,0.00
2021,10,02,07,20,0.00
2021,10,02,07,21,0.00
2021,10,02,07,22,0.00
2021,10,02,07,23,0.00
2021,10,02,07,24,0.70
2021,10,02,07,25,5.00
2021,10,02,07,26,5.00
2021,10,02,07,27,5.00
2021,10,02,07,28,5.00
2021,10,02,07,29,5.10
2021,10,02,07,30,7.00
2021,10,02,07,31,7.00
2021,10,02,07,32,7.00
2021,10,02,07,33,7.00
2021,10,02,07,34,7.00
2021,10,02,07,35,7.10
2021,10,02,07,36,9.00
2021,10,02,07,37,9.00
2021,10,02,07,38,9.00
2021,10,02,07,39,9.00
2021,10,02,07,40,9.00
2021,10,02,07,41,10.90
2021,10,02,07,42,11.00
2021,10,02,07,43,11.00
2021,10,02,07,44,11.50
2021,10,02,07,45,12.00
2021,10,02,07,46,12.00
2021,10,02,07,47,14.10
2021,10,02,07,48,16.00
2021,10,02,07,49,16.80
2021,10,02,07,50,18.00
2021,10,02,07,51,18.70
2021,10,02,07,52,20.60
2021,10,02,07,53,21.00
2021,10,02,07,54,21.60
2021,10,02,07,55,23.80
2021,10,02,07,56,25.00
2021,10,02,07,57,25.70
2021,10,02,07,58,26.00
2021,10,02,07,59,28.00
2021,10,02,08,00,28.50
2021,10,02,08,01,30.90
2021,10,02,08,02,32.00
2021,10,02,08,03,32.70
2021,10,02,08,04,33.00
2021,10,02,08,05,35.00
2021,10,02,08,06,35.60
2021,10,02,08,07,37.90
2021,10,02,08,08,39.00
2021,10,02,08,09,39.80
2021,10,02,08,10,41.70
2021,10,02,08,11,44.00
2021,10,02,08,12,44.60
2021,10,02,08,13,46.00
2021,10,02,08,14,46.60
2021,10,02,08,15,47.00
2021,10,02,08,16,49.00
2021,10,02,08,17,53.50
2021,10,02,08,18,56.70
2021,10,02,08,19,57.00
2021,10,02,08,20,56.00
2021,10,02,08,21,56.00
2021,10,02,08,22,57.70
2021,10,02,08,23,56.50
2021,10,02,08,24,58.00
2021,10,02,08,25,58.00
2021,10,02,08,26,59.30
2021,10,02,08,27,61.60
2021,10,02,08,28,62.90
2021,10,02,08,29,62.00
2021,10,02,08,30,61.20
2021,10,02,08,31,57.90
2021,10,02,08,32,54.70
2021,10,02,08,33,53.20
2021,10,02,08,34,52.80
2021,10,02,08,35,50.50
2021,10,02,08,36,48.20
2021,10,02,08,37,47.00
2021,10,02,08,38,47.00
2021,10,02,08,39,46.20
2021,10,02,08,40,44.10
2021,10,02,08,41,43.40
2021,10,02,08,42,42.80
2021,10,02,08,43,45.10
2021,10,02,08,44,48.20
2021,10,02,08,45,50.70
2021,10,02,08,46,54.00
2021,10,02,08,47,55.20
2021,10,02,08,48,58.00
2021,10,02,08,49,59.20
2021,10,02,08,50,60.00
2021,10,02,08,51,58.20
2021,10,02,08,52,56.00
2021,10,02,08,53,56.00
2021,10,02,08,54,56.00
2021,10,02,08,55,58.50
2021,10,02,08,56,62.20
2021,10,02,08,57,66.70
2021,10,02,08,58,69.20
2021,10,02,08,59,72.10
2021,10,02,09,00,77.40
2021,10,02,09,01,80.20
2021,10,02,09,02,82.60
2021,10,02,09,03,85.70
2021,10,02,09,04,85.40
2021,10,02,09,05,84.10
2021,10,02,09,06,87.00
2021,10,02,09,07,91.10
2021,10,02,09,08,91.40
2021,10,02,09,09,91.40
2021,10,02,09,10,95.40
2021,10,02,09,11,94.80
2021,10,02,09,12,88.40
2021,10,02,09,13,84.70
2021,10,02,09,14,84.00
2021,10,02,09,15,82.70
2021,10,02,09,16,79.00
2021,10,02,09,17,79.80
2021,10,02,09,18,82.10
2021,10,02,09,19,83.70
2021,10,02,09,20,85.70
2021,10,02,09,21,90.10
2021,10,02,09,22,91.00
2021,10,02,09,23,91.00
2021,10,02,09,24,92.10
2021,10,02,09,25,95.80
2021,10,02,09,26,97.90
2021,10,02,09,27,98.00
2021,10,02,09,28,97.70
2021,10,02,09,29,97.00
2021,10,02,09,30,97.00
2021,10,02,09,31,97.00
2021,10,02,09,32,97.90
2021,10,02,09,33,102.50
2021,10,02,09,34,105.60
2021,10,02,09,35,107.90
2021,10,02,09,36,110.20
2021,10,02,09,37,113.20
2021,10,02,09,38,116.00
2021,10,02,09,39,120.20
2021,10,02,09,40,122.30
2021,10,02,09,41,125.90
2021,10,02,09,42,127.60
2021,10,02,09,43,128.00
2021,10,02,09,44,129.90
2021,10,02,09,45,132.40
2021,10,02,09,46,135.00
2021,10,02,09,47,139.10
2021,10,02,09,48,144.40
2021,10,02,09,49,149.80
2021,10,02,09,50,155.30
2021,10,02,09,51,161.20
2021,10,02,09,52,166.50
2021,10,02,09,53,171.80
2021,10,02,09,54,177.30
2021,10,02,09,55,184.60
2021,10,02,09,56,196.90
2021,10,02,09,57,200.60
2021,10,02,09,58,204.00
2021,10,02,09,59,209.20
2021,10,02,10,00,208.20
2021,10,02,10,01,220.00
2021,10,02,10,02,224.30
2021,10,02,10,03,216.10
2021,10,02,10,04,207.00
2021,10,02,10,05,215.30
2021,10,02,10,06,226.30
2021,10,02,10,07,235.90
2021,10,02,10,08,263.00
2021,10,02,10,09,322.60
2021,10,02,10,10,369.50
2021,10,02,10,11,352.10
2021,10,02,10,12,290.00
2021,10,02,10,13,262.20
2021,10,02,10,14,283.10
2021,10,02,10,15,374.30
2021,10,02,10,16,344.00
2021,10,02,10,17,325.70
2021,10,02,10,18,326.20
2021,10,02,10,19,266.70
2021,10,02,10,20,241.80
2021,10,02,10,21,230.90
2021,10,02,10,22,231.40
2021,10,02,10,23,234.00
2021,10,02,10,24,230.90
2021,10,02,10,25,224.50
2021,10,02,10,26,234.60
2021,10,02,10,27,238.50
2021,10,02,10,28,247.30
2021,10,02,10,29,254.30
2021,10,02,10,30,259.00
2021,10,02,10,31,268.60
2021,10,02,10,32,267.80
2021,10,02,10,33,271.20
2021,10,02,10,34,334.10
2021,10,02,10,35,320.00
2021,10,02,10,36,268.20
2021,10,02,10,37,266.70
2021,10,02,10,38,268.10
2021,10,02,10,39,283.20
2021,10,02,10,40,308.10
2021,10,02,10,41,320.00
2021,10,02,10,42,324.20
2021,10,02,10,43,380.00
2021,10,02,10,44,401.40
2021,10,02,10,45,423.90
2021,10,02,10,46,347.90
2021,10,02,10,47,318.50
2021,10,02,10,48,297.70
2021,10,02,10,49,290.00
2021,10,02,10,50,279.70
2021,10,02,10,51,277.00
2021,10,02,10,52,273.10
2021,10,02,10,53,268.80
2021,10,02,10,54,260.90
2021,10,02,10,55,256.70
2021,10,02,10,56,254.40
2021,10,02,10,57,253.00
2021,10,02,10,58,253.00
2021,10,02,10,59,256.00
2021,10,02,11,00,260.00
2021,10,02,11,01,265.90
2021,10,02,11,02,271.30
2021,10,02,11,03,272.00
2021,10,02,11,04,273.20
2021,10,02,11,05,275.50
2021,10,02,11,06,275.80
2021,10,02,11,07,273.60
2021,10,02,11,08,271.00
2021,10,02,11,09,268.00
2021,10,02,11,10,267.00
2021,10,02,11,11,270.30
2021,10,02,11,12,282.50
2021,10,02,11,13,307.20
2021,10,02,11,14,333.60
2021,10,02,11,15,345.50
2021,10,02,11,16,344.30
2021,10,02,11,17,387.30
2021,10,02,11,18,462.50
2021,10,02,11,19,420.10
2021,10,02,11,20,445.60
2021,10,02,11,21,416.50
2021,10,02,11,22,425.60
2021,10,02,11,23,467.10
2021,10,02,11,24,521.60
2021,10,02,11,25,427.10
2021,10,02,11,26,369.20
2021,10,02,11,27,372.10
2021,10,02,11,28,364.00
2021,10,02,11,29,504.90
2021,10,02,11,30,598.80
2021,10,02,11,31,603.90
2021,10,02,11,32,523.10
2021,10,02,11,33,464.00
2021,10,02,11,34,452.40
2021,10,02,11,35,435.70
2021,10,02,11,36,446.00
2021,10,02,11,37,446.00
2021,10,02,11,38,442.90
2021,10,02,11,39,439.00
2021,10,02,11,40,439.00
2021,10,02,11,41,574.70
2021,10,02,11,42,661.00
2021,10,02,11,43,583.00
2021,10,02,11,44,421.30
2021,10,02,11,45,430.70
2021,10,02,11,46,443.60
2021,10,02,11,47,493.70
2021,10,02,11,48,518.00
2021,10,02,11,49,470.80
2021,10,02,11,50,432.50
2021,10,02,11,51,419.00
2021,10,02,11,52,466.40
2021,10,02,11,53,475.00
2021,10,02,11,54,448.40
2021,10,02,11,55,447.40
2021,10,02,11,56,430.40
2021,10,02,11,57,412.00
2021,10,02,11,58,415.60
2021,10,02,11,59,398.10
2021,10,02,12,00,377.50
2021,10,02,12,01,363.10
2021,10,02,12,02,366.20
2021,10,02,12,03,412.30
2021,10,02,12,04,388.50
2021,10,02,12,05,364.60
2021,10,02,12,06,343.00
2021,10,02,12,07,340.50
2021,10,02,12,08,364.70
2021,10,02,12,09,337.40
2021,10,02,12,10,322.90
2021,10,02,12,11,345.60
2021,10,02,12,12,343.60
2021,10,02,12,13,345.40
2021,10,02,12,14,341.20
2021,10,02,12,15,349.10
2021,10,02,12,16,408.30
2021,10,02,12,17,398.40
2021,10,02,12,18,361.20
2021,10,02,12,19,364.00
2021,10,02,12,20,515.00
2021,10,02,12,21,569.80
2021,10,02,12,22,516.40
2021,10,02,12,23,563.00
2021,10,02,12,24,507.40
2021,10,02,12,25,425.50
2021,10,02,12,26,497.00
2021,10,02,12,27,450.70
2021,10,02,12,28,490.40
2021,10,02,12,29,518.00
2021,10,02,12,30,606.00
2021,10,02,12,31,513.00
2021,10,02,12,32,420.00
2021,10,02,12,33,492.00
2021,10,02,12,34,584.80
2021,10,02,12,35,589.80
2021,10,02,12,36,620.30
2021,10,02,12,37,631.00
2021,10,02,12,38,612.10
2021,10,02,12,39,622.40
2021,10,02,12,40,625.40
2021,10,02,12,41,609.00
2021,10,02,12,42,661.80
2021,10,02,12,43,694.00
2021,10,02,12,44,709.30
2021,10,02,12,45,717.00
2021,10,02,12,46,450.00
2021,10,02,12,47,450.00
2021,10,02,12,48,507.10
2021,10,02,12,49,541.70
2021,10,02,12,50,450.00
2021,10,02,12,51,417.30
2021,10,02,12,52,400.00
2021,10,02,12,53,398.20
2021,10,02,12,54,402.90
2021,10,02,12,55,386.40
2021,10,02,12,56,372.10
2021,10,02,12,57,454.50
2021,10,02,12,58,520.30
2021,10,02,12,59,793.80
2021,10,02,13,00,807.00
2021,10,02,13,01,807.00
2021,10,02,13,02,807.00
2021,10,02,13,03,807.00
2021,10,02,13,04,726.40
2021,10,02,13,05,404.00
2021,10,02,13,06,668.00
2021,10,02,13,07,932.00
2021,10,02,13,08,932.00
2021,10,02,13,09,932.00
2021,10,02,13,10,932.00
2021,10,02,13,11,932.00
2021,10,02,13,12,704.00
2021,10,02,13,13,476.00
2021,10,02,13,14,530.10
2021,10,02,13,15,568.90
2021,10,02,13,16,589.00
2021,10,02,13,17,526.50
2021,10,02,13,18,444.60
2021,10,02,13,19,475.70
2021,10,02,13,20,429.50
2021,10,02,13,21,376.90
2021,10,02,13,22,403.00
2021,10,02,13,23,403.00
2021,10,02,13,24,391.70
2021,10,02,13,25,383.00
2021,10,02,13,26,383.00
2021,10,02,13,27,454.50
2021,10,02,13,28,867.30
2021,10,02,13,29,868.00
2021,10,02,13,30,800.40
2021,10,02,13,31,768.00
2021,10,02,13,32,768.00
2021,10,02,13,33,768.00
2021,10,02,13,34,681.60
2021,10,02,13,35,447.00
2021,10,02,13,36,396.40
2021,10,02,13,37,362.00
2021,10,02,13,38,352.50
2021,10,02,13,39,370.50
2021,10,02,13,40,392.00
2021,10,02,13,41,392.00
2021,10,02,13,42,392.00
2021,10,02,13,43,392.00
2021,10,02,13,44,389.00
2021,10,02,13,45,365.00
2021,10,02,13,46,350.70
2021,10,02,13,47,330.50
2021,10,02,13,48,335.10
2021,10,02,13,49,332.10
2021,10,02,13,50,342.90
2021,10,02,13,51,372.10
2021,10,02,13,52,384.60
2021,10,02,13,53,364.20
2021,10,02,13,54,362.00
2021,10,02,13,55,362.00
2021,10,02,13,56,767.70
2021,10,02,13,57,688.50
2021,10,02,13,58,341.40
2021,10,02,13,59,327.00
2021,10,02,14,00,327.00
2021,10,02,14,01,327.00
2021,10,02,14,02,327.00
2021,10,02,14,03,411.00
2021,10,02,14,04,657.90
2021,10,02,14,05,627.50
2021,10,02,14,06,550.40
2021,10,02,14,07,581.80
2021,10,02,14,08,550.50
2021,10,02,14,09,451.40
2021,10,02,14,10,410.00
2021,10,02,14,11,410.00
2021,10,02,14,12,410.00
2021,10,02,14,13,527.00
2021,10,02,14,14,519.10
2021,10,02,14,15,511.00
2021,10,02,14,16,526.90
2021,10,02,14,17,572.40
2021,10,02,14,18,539.00
2021,10,02,14,19,522.00
2021,10,02,14,20,522.00
2021,10,02,14,21,522.00
2021,10,02,14,22,522.00
2021,10,02,14,23,381.50
2021,10,02,14,24,296.50
2021,10,02,14,25,311.00
2021,10,02,14,26,253.00
2021,10,02,14,27,401.40
2021,10,02,14,28,645.30
2021,10,02,14,29,616.30
2021,10,02,14,30,604.50
2021,10,02,14,31,603.00
2021,10,02,14,32,600.50
2021,10,02,14,33,602.00
2021,10,02,14,34,629.30
2021,10,02,14,35,637.50
2021,10,02,14,36,647.60
2021,10,02,14,37,662.30
2021,10,02,14,38,678.70
2021,10,02,14,39,664.00
2021,10,02,14,40,664.00
2021,10,02,14,41,664.00
2021,10,02,14,42,527.70
2021,10,02,14,43,499.00
2021,10,02,14,44,499.00
2021,10,02,14,45,499.00
2021,10,02,14,46,499.00
2021,10,02,14,47,620.00
2021,10,02,14,48,673.00
2021,10,02,14,49,448.20
2021,10,02,14,50,366.50
2021,10,02,14,51,353.50
2021,10,02,14,52,378.70
2021,10,02,14,53,385.00
2021,10,02,14,54,582.10
2021,10,02,14,55,526.00
2021,10,02,14,56,464.60
2021,10,02,14,57,299.30
2021,10,02,14,58,306.00
2021,10,02,14,59,328.00
2021,10,02,15,00,346.60
2021,10,02,15,01,363.90
2021,10,02,15,02,409.50
2021,10,02,15,03,461.00
2021,10,02,15,04,379.30
2021,10,02,15,05,319.20
2021,10,02,15,06,301.30
2021,10,02,15,07,271.20
2021,10,02,15,08,236.00
2021,10,02,15,09,215.50
2021,10,02,15,10,205.90
2021,10,02,15,11,206.30
2021,10,02,15,12,213.60
2021,10,02,15,13,216.40
2021,10,02,15,14,216.10
2021,10,02,15,15,208.30
2021,10,02,15,16,196.80
2021,10,02,15,17,189.10
2021,10,02,15,18,184.90
2021,10,02,15,19,180.20
2021,10,02,15,20,178.00
2021,10,02,15,21,178.00
2021,10,02,15,22,178.70
2021,10,02,15,23,176.50
2021,10,02,15,24,171.90
2021,10,02,15,25,168.00
2021,10,02,15,26,165.80
2021,10,02,15,27,167.00
2021,10,02,15,28,167.00
2021,10,02,15,29,165.30
2021,10,02,15,30,161.70
2021,10,02,15,31,158.90
2021,10,02,15,32,154.70
2021,10,02,15,33,151.80
2021,10,02,15,34,149.60
2021,10,02,15,35,149.00
2021,10,02,15,36,151.40
2021,10,02,15,37,153.60
2021,10,02,15,38,156.40
2021,10,02,15,39,161.00
2021,10,02,15,40,167.50
2021,10,02,15,41,170.60
2021,10,02,15,42,165.20
2021,10,02,15,43,155.30
2021,10,02,15,44,146.00
2021,10,02,15,45,137.90
2021,10,02,15,46,131.20
2021,10,02,15,47,123.40
2021,10,02,15,48,116.80
2021,10,02,15,49,110.90
2021,10,02,15,50,104.50
2021,10,02,15,51,99.50
2021,10,02,15,52,92.40
2021,10,02,15,53,86.20
2021,10,02,15,54,82.60
2021,10,02,15,55,81.00
2021,10,02,15,56,82.00
2021,10,02,15,57,83.70
2021,10,02,15,58,84.00
2021,10,02,15,59,84.00
2021,10,02,16,00,83.80
2021,10,02,16,01,81.40
2021,10,02,16,02,77.40
2021,10,02,16,03,74.70
2021,10,02,16,04,72.40
2021,10,02,16,05,71.80
2021,10,02,16,06,69.80
2021,10,02,16,07,68.10
2021,10,02,16,08,64.80
2021,10,02,16,09,60.90
2021,10,02,16,10,56.60
2021,10,02,16,11,53.70
2021,10,02,16,12,50.40
2021,10,02,16,13,48.10
2021,10,02,16,14,46.50
2021,10,02,16,15,46.00
2021,10,02,16,16,46.00
2021,10,02,16,17,46.00
2021,10,02,16,18,46.00
2021,10,02,16,19,46.00
2021,10,02,16,20,46.00
2021,10,02,16,21,46.00
2021,10,02,16,22,45.90
2021,10,02,16,23,44.00
2021,10,02,16,24,43.40
2021,10,02,16,25,42.00
2021,10,02,16,26,42.00
2021,10,02,16,27,43.40
2021,10,02,16,28,44.00
2021,10,02,16,29,44.30
2021,10,02,16,30,46.30
2021,10,02,16,31,47.00
2021,10,02,16,32,47.00
2021,10,02,16,33,47.00
2021,10,02,16,34,48.80
2021,10,02,16,35,49.40
2021,10,02,16,36,51.70
2021,10,02,16,37,53.50
2021,10,02,16,38,54.00
2021,10,02,16,39,53.20
2021,10,02,16,40,52.80
2021,10,02,16,41,51.00
2021,10,02,16,42,50.20
2021,10,02,16,43,48.00
2021,10,02,16,44,47.00
2021,10,02,16,45,46.20
2021,10,02,16,46,46.00
2021,10,02,16,47,46.00
2021,10,02,16,48,46.00
2021,10,02,16,49,46.00
2021,10,02,16,50,46.70
2021,10,02,16,51,47.00
2021,10,02,16,52,49.20
2021,10,02,16,53,51.00
2021,10,02,16,54,51.90
2021,10,02,16,55,53.00
2021,10,02,16,56,53.00
2021,10,02,16,57,53.00
2021,10,02,16,58,51.30
2021,10,02,16,59,53.00
2021,10,02,17,00,53.50
2021,10,02,17,01,55.20
2021,10,02,17,02,56.00
2021,10,02,17,03,57.80
2021,10,02,17,04,58.00
2021,10,02,17,05,58.00
2021,10,02,17,06,57.00
2021,10,02,17,07,56.00
2021,10,02,17,08,54.50
2021,10,02,17,09,53.00
2021,10,02,17,10,50.60
2021,10,02,17,11,48.30
2021,10,02,17,12,46.50
2021,10,02,17,13,44.80
2021,10,02,17,14,44.00
2021,10,02,17,15,42.20
2021,10,02,17,16,41.60
2021,10,02,17,17,40.00
2021,10,02,17,18,40.00
2021,10,02,17,19,40.00
2021,10,02,17,20,40.00
2021,10,02,17,21,40.00
2021,10,02,17,22,40.00